CW1852 Weather Reports


time (UTC)temp
F
wind
direction
speed
knots
gust
knots
rain 1hr
in
rain 24hr
in
rain mn
in
humidity
%
barometer
mb
20260508090203 38 296 0.0 1.7 0.00 0.01 0.00 78 1005.1
20260508085202 38 296 0.9 1.7 0.00 0.01 0.00 80 1005.1
20260508084224 37 296 0.0 2.6 0.00 0.01 0.00 83 1005.0
20260508083203 37 296 0.0 1.7 0.00 0.01 0.00 82 1004.9
20260508082223 38 296 0.9 2.6 0.00 0.01 0.00 77 1005.0
20260508081203 39 296 1.7 2.6 0.00 0.01 0.00 76 1005.0
20260508080202 39 296 0.9 1.7 0.00 0.01 0.00 74 1004.9
20260508075203 39 296 0.9 1.7 0.00 0.01 0.00 73 1004.7
20260508074203 40 296 0.0 1.7 0.00 0.01 0.00 72 1004.7
20260508073203 42 296 1.7 3.5 0.00 0.01 0.00 67 1004.7
20260508072203 42 296 0.9 7.0 0.00 0.01 0.00 67 1004.7
20260508071202 43 311 1.7 7.0 0.00 0.01 0.00 64 1004.7
20260508070203 43 332 1.7 7.8 0.00 0.01 0.00 63 1004.7
20260508065203 44 331 2.6 7.0 0.00 0.01 0.00 62 1004.6
20260508064223 44 356 1.7 5.2 0.00 0.01 0.00 61 1004.7
20260508063203 45 313 2.6 8.7 0.00 0.01 0.00 60 1004.6
20260508062203 45 5 1.7 9.6 0.00 0.02 0.00 59 1004.5
20260508061202 45 334 3.5 7.8 0.00 0.02 0.00 60 1004.6
20260508060204 45 327 2.6 7.8 0.00 0.02 0.00 59 1004.8
20260508055203 45 0 2.6 7.8 0.00 0.02 0.00 60 1005.0
20260508054203 45 338 3.5 10.4 0.00 0.02 0.00 59 1004.9
20260508053203 45 299 2.6 7.8 0.00 0.02 0.00 60 1005.0
20260508052203 45 323 1.7 6.1 0.00 0.03 0.00 59 1005.2
20260508051202 45 344 3.5 8.7 0.00 0.03 0.00 61 1005.0
20260508050203 44 313 2.6 7.0 0.00 0.04 0.00 61 1005.1
20260508045224 44 317 1.7 4.3 0.00 0.05 0.00 61 1005.4
20260508044202 45 313 1.7 6.1 0.00 0.09 0.00 62 1005.5
20260508043203 45 0 1.7 5.2 0.00 0.15 0.00 61 1005.5
20260508042203 44 322 1.7 4.3 0.00 0.17 0.00 62 1005.5
20260508041203 45 316 2.6 5.2 0.00 0.18 0.00 61 1005.5
20260508040203 45 306 1.7 5.2 0.00 0.18 0.00 60 1005.5
20260508035202 46 321 1.7 7.8 0.00 0.18 0.18 58 1005.6
20260508034224 46 344 1.7 5.2 0.00 0.18 0.18 60 1005.7
20260508033202 47 14 1.7 4.3 0.00 0.18 0.18 56 1005.6
20260508032203 48 352 2.6 8.7 0.00 0.18 0.18 53 1005.6
20260508031203 48 355 1.7 7.0 0.00 0.18 0.18 55 1005.5
20260508030203 47 350 2.6 7.8 0.00 0.18 0.18 57 1005.6
20260508025203 48 328 1.7 7.0 0.00 0.18 0.18 56 1005.5
20260508024203 48 337 3.5 8.7 0.00 0.18 0.18 55 1005.3
20260508023203 48 352 1.7 8.7 0.00 0.18 0.18 56 1005.2
20260508022203 48 345 2.6 8.7 0.00 0.18 0.18 57 1005.2
20260508021202 49 317 2.6 6.1 0.00 0.18 0.18 55 1005.0
20260508020203 50 332 1.7 7.8 0.00 0.18 0.18 55 1005.0
20260508015203 50 346 3.5 9.6 0.00 0.18 0.18 52 1005.0
20260508014203 51 314 2.6 7.0 0.00 0.18 0.18 53 1004.9
20260508013202 51 345 2.6 7.8 0.00 0.18 0.18 52 1004.8
20260508012203 50 344 3.5 6.1 0.00 0.18 0.18 53 1004.9
20260508011204 51 334 1.7 7.8 0.00 0.19 0.18 55 1004.8
20260508010203 51 344 1.7 7.8 0.00 0.19 0.18 52 1004.6
20260508005203 51 345 2.6 7.8 0.00 0.20 0.18 55 1004.4
20260508004203 49 43 0.9 3.5 0.00 0.21 0.18 66 1004.2
20260508003203 50 351 1.7 3.5 0.00 0.22 0.18 60 1004.0
20260508002203 50 353 1.7 5.2 0.00 0.23 0.18 68 1003.8
20260508001203 49 306 0.9 6.1 0.00 0.24 0.18 79 1003.7
20260508000204 48 317 0.9 2.6 0.00 0.24 0.18 81 1003.7
20260507235203 48 315 0.0 1.7 0.00 0.24 0.18 77 1003.6
20260507234223 50 313 0.0 6.1 0.00 0.25 0.18 76 1003.6
20260507233203 50 207 0.9 2.6 0.00 0.26 0.18 75 1003.4
20260507232203 52 207 0.9 3.5 0.00 0.27 0.18 71 1003.1
20260507231202 54 199 1.7 7.0 0.00 0.30 0.18 64 1003.0
20260507230203 56 283 1.7 5.2 0.00 0.33 0.18 52 1002.8
20260507225202 55 312 0.9 10.4 0.00 0.35 0.18 59 1002.8
20260507224203 54 215 0.9 3.5 0.00 0.38 0.18 70 1002.5
20260507223203 54 206 1.7 5.2 0.00 0.41 0.18 68 1002.5
20260507222203 55 237 2.6 5.2 0.00 0.47 0.18 67 1002.4
20260507220203 54 181 2.6 8.7 0.00 0.60 0.18 71 1002.3
20260507215223 54 203 3.5 9.6 0.00 0.62 0.18 71 1002.4
20260507214203 54 233 3.5 9.6 0.00 0.64 0.18 71 1002.5
20260507213224 54 196 4.3 12.2 0.00 0.66 0.18 70 1002.5
20260507212204 54 194 4.3 10.4 0.00 0.67 0.18 72 1002.4
20260507211203 55 212 5.2 12.2 0.00 0.68 0.18 71 1002.4
20260507210202 55 213 4.3 10.4 0.00 0.68 0.18 70 1002.2
20260507205224 55 249 4.3 8.7 0.00 0.69 0.18 71 1002.3
20260507204225 54 249 3.5 13.0 0.00 0.70 0.18 73 1002.2
20260507203202 53 228 4.3 9.6 0.00 0.70 0.18 73 1002.2
20260507202203 55 205 5.2 14.8 0.00 0.71 0.18 72 1002.2
20260507201202 54 205 6.1 14.8 0.00 0.72 0.18 71 1002.2
20260507200224 57 218 5.2 17.4 0.00 0.72 0.18 68 1002.3
20260507195202 57 203 5.2 15.6 0.00 0.73 0.18 69 1002.4
20260507194203 58 203 4.3 18.2 0.00 0.74 0.18 68 1002.5
20260507193203 58 226 5.2 13.0 0.00 0.74 0.18 65 1002.6
20260507192204 60 206 7.8 14.8 0.00 0.74 0.18 60 1002.6
20260507191225 60 223 5.2 12.2 0.00 0.74 0.18 62 1002.7
20260507190204 59 212 5.2 10.4 0.00 0.74 0.18 62 1002.7
20260507185202 59 206 5.2 13.9 0.00 0.74 0.18 65 1002.9
20260507184203 58 222 5.2 12.2 0.00 0.74 0.18 65 1003.0
20260507183203 59 210 7.0 15.6 0.00 0.74 0.18 63 1003.0
20260507182202 59 213 5.2 13.0 0.00 0.74 0.18 63 1003.1
20260507181203 59 227 4.3 12.2 0.00 0.74 0.18 66 1003.4
20260507180202 58 229 4.3 13.9 0.00 0.74 0.18 68 1003.3
20260507175203 59 223 5.2 12.2 0.00 0.74 0.18 69 1003.4
20260507174204 58 233 6.1 17.4 0.00 0.74 0.18 69 1003.5
20260507173224 58 233 5.2 14.8 0.00 0.74 0.18 72 1003.5
20260507172203 59 197 7.0 13.0 0.00 0.74 0.18 70 1003.3
20260507171203 60 204 4.3 13.0 0.00 0.74 0.18 66 1003.4
20260507170204 60 206 6.1 13.9 0.00 0.74 0.18 63 1003.3
20260507165203 60 220 5.2 11.3 0.00 0.74 0.18 63 1003.4
20260507164202 60 204 4.3 13.0 0.00 0.74 0.18 64 1003.5
20260507163203 60 195 6.1 13.0 0.00 0.74 0.18 68 1003.7
20260507162224 59 203 6.1 11.3 0.00 0.74 0.18 67 1003.8
20260507161202 60 203 6.1 12.2 0.00 0.74 0.18 67 1003.9
20260507160203 60 198 4.3 9.6 0.00 0.74 0.18 68 1004.0
20260507155203 59 220 4.3 10.4 0.00 0.74 0.18 68 1004.1
20260507154203 59 207 5.2 10.4 0.00 0.74 0.18 71 1004.2
20260507153203 59 238 3.5 10.4 0.00 0.74 0.18 70 1004.2
20260507152224 59 212 5.2 10.4 0.00 0.74 0.18 66 1004.3
20260507151245 59 191 4.3 9.6 0.00 0.74 0.18 70 1004.2
20260507150223 60 200 3.5 6.1 0.00 0.74 0.18 70 1004.3
20260507145203 59 216 3.5 8.7 0.00 0.74 0.18 69 1004.4
20260507144202 59 293 2.6 7.8 0.00 0.74 0.18 71 1004.4
20260507143203 58 308 3.5 6.1 0.00 0.74 0.18 73 1004.4
20260507141203 57 299 3.5 7.0 0.00 0.74 0.18 75 1004.8
20260507140203 56 305 1.7 6.1 0.00 0.74 0.18 73 1004.7
20260507135203 56 339 0.9 7.0 0.00 0.74 0.18 76 1004.7
20260507134202 54 344 4.3 7.8 0.00 0.74 0.18 74 1004.7
20260507133203 53 323 3.5 7.0 0.00 0.74 0.18 75 1004.8
20260507132202 53 291 2.6 8.7 0.00 0.74 0.18 80 1004.9
20260507131224 53 300 3.5 7.8 0.00 0.74 0.18 82 1004.9
20260507130203 52 351 3.5 7.8 0.00 0.74 0.18 80 1005.1
20260507125203 51 290 4.3 9.6 0.00 0.74 0.18 83 1005.3
20260507124203 51 317 0.9 7.8 0.00 0.74 0.18 87 1005.1
20260507123202 49 310 2.6 8.7 0.00 0.74 0.18 89 1004.9
20260507122203 49 302 3.5 7.8 0.00 0.74 0.18 92 1005.0
20260507121202 48 270 2.6 10.4 0.00 0.74 0.18 92 1005.0
20260507120203 48 312 5.2 9.6 0.00 0.74 0.18 94 1004.6
20260507115245 48 316 1.7 7.8 0.00 0.74 0.18 96 1004.8
20260507114202 47 297 1.7 5.2 0.00 0.74 0.18 95 1004.9
20260507113203 47 296 1.7 4.3 0.00 0.74 0.18 95 1005.1
20260507112224 47 288 1.7 4.3 0.00 0.74 0.18 96 1005.0
20260507111202 47 334 1.7 4.3 0.00 0.74 0.18 95 1005.3
20260507110203 47 296 1.7 3.5 0.00 0.74 0.18 96 1005.0
20260507105224 47 296 1.7 3.5 0.00 0.74 0.18 96 1005.7
20260507104202 47 296 1.7 2.6 0.00 0.74 0.18 96 1006.0
20260507103203 47 296 0.9 7.0 0.00 0.74 0.18 96 1005.3
20260507102203 47 290 0.9 4.3 0.00 0.74 0.18 96 1005.2
20260507101224 47 285 1.7 4.3 0.00 0.74 0.18 96 1005.3
20260507100203 47 310 2.6 5.2 0.00 0.74 0.18 96 1004.6
20260507095203 47 273 2.6 5.2 0.01 0.74 0.18 96 1004.8
20260507094202 47 295 1.7 5.2 0.01 0.74 0.18 96 1004.6
20260507093203 48 312 2.6 6.1 0.01 0.74 0.18 96 1004.4
20260507092203 48 283 2.6 6.1 0.00 0.73 0.17 96 1004.6
20260507091203 48 295 0.9 4.3 0.00 0.73 0.17 96 1004.5